[[{"header":{"parameterUnit":"m.s-1","parameterCategory":1,"la1":30.2991,"la2":30.254,"lo1":-89.0895,"lo2":-89.0444,"dy":0.0017,"dx":0.0017,"nx":28,"ny":28,"refTime":"2025-03-18T21:00:00:Z","depth":0,"parameterNumber":2,"parameterNumberName":"U-component_of_WINDS"},"data":[0,0,0,0,0,0,0,0,0,0,0,0,0,0,0,0,0,0,0,0,0,0,0,0,0,0,0,0,0,0,0,0,0,0,0,0,0,0,0,0,0,0,0,0,0,0,0,0,0,0,0,0,0,0,0,0,0,0,-0.4583,-0.4583,0,-0.4623,-0.4623,-0.4624,-0.4654,-0.4655,-0.4655,-0.4655,-0.4696,-0.4697,-0.4697,0,0,0,0,0,0,0,0,0,0,0,0,0,-0.4532,-0.4533,-0.4583,-0.4583,-0.4584,-0.4623,-0.4624,-0.4624,-0.4654,-0.4655,-0.4655,-0.4655,-0.4696,-0.4696,-0.4697,0,0,0,0,0,0,0,0,0,0,0,0,0,-0.4562,-0.4533,-0.4583,-0.4604,-0.4606,-0.4623,-0.4624,-0.4624,-0.4654,-0.4655,-0.4655,-0.4656,-0.4695,-0.4696,-0.4698,-0.4697,0,0,-0.4701,-0.4702,0,0,0,0,0,0,0,0,-0.456,-0.4563,-0.46,-0.4602,-0.4605,-0.4634,-0.4621,-0.4648,-0.4654,-0.4636,-0.4655,-0.4656,-0.4675,-0.4678,-0.4684,-0.4699,-0.47,-0.4701,-0.4702,-0.4703,-0.4703,0,0,0,0,0,0,0,-0.4558,-0.4562,-0.4599,-0.46,-0.4603,-0.4611,-0.4616,-0.4626,-0.4652,-0.4638,-0.464,-0.4644,-0.4676,-0.4683,-0.4686,-0.4701,-0.4701,-0.4702,-0.4703,-0.4704,-0.4718,-0.4718,0,0,0,0,0,0,-0.4553,-0.456,-0.4597,-0.46,-0.4583,-0.4612,-0.4617,-0.4624,-0.4652,-0.4657,-0.4644,-0.4646,-0.4681,-0.4684,-0.4687,-0.4689,-0.4703,-0.4704,-0.4705,-0.4719,-0.4718,-0.4718,0,0,0,0,0,0,-0.4551,-0.4556,-0.4596,-0.4581,-0.4586,-0.4612,-0.462,-0.4625,-0.4632,-0.4657,-0.4662,-0.4646,-0.4681,-0.4685,-0.4695,-0.4691,-0.4704,-0.4706,-0.4719,-0.4718,-0.4718,-0.4692,0,0,0,0,0,0,-0.455,-0.4555,-0.4555,-0.458,-0.4587,-0.4602,-0.462,-0.4625,-0.4634,-0.4637,-0.4661,-0.4665,-0.4682,-0.4693,-0.4696,-0.4693,-0.4706,-0.4719,-0.4719,-0.4718,-0.4694,-0.4691,-0.4689,0,0,0,0,0,-0.4548,-0.4545,-0.4555,-0.4559,-0.4587,-0.4602,-0.4606,-0.4626,-0.4633,-0.4634,-0.465,-0.4664,-0.4691,-0.4693,-0.4697,-0.4694,-0.472,-0.4719,-0.4718,-0.4695,-0.4691,-0.4689,0,0,0,0,0,0,-0.4518,-0.4549,-0.456,-0.4565,-0.4581,-0.4607,-0.4608,-0.4621,-0.4635,-0.4636,-0.466,-0.4666,-0.4672,-0.4684,-0.4687,-0.4696,-0.4707,-0.4707,-0.4688,-0.4685,-0.4683,-0.468,-0.4707,0,0,0,0,0,-0.4512,-0.4522,-0.4548,-0.4551,-0.4558,-0.4581,-0.4589,-0.4603,-0.462,-0.4626,-0.4644,-0.4659,-0.4672,-0.4679,-0.4691,-0.4696,-0.4702,-0.4696,-0.4693,-0.4691,-0.4691,-0.4695,-0.4693,-0.4715,-0.4715,-0.4715,0,0,-0.45,-0.4518,-0.4522,-0.4545,-0.4559,-0.4568,-0.4587,-0.4596,-0.4603,-0.4628,-0.4638,-0.4651,-0.467,-0.4677,-0.4681,-0.4688,-0.4686,-0.469,-0.4688,-0.4689,-0.4694,-0.4692,-0.469,-0.4715,-0.4715,-0.4715,0,0,-0.4483,-0.4497,-0.4501,-0.4515,-0.4536,-0.4552,-0.4553,-0.4578,-0.4588,-0.4598,-0.4617,-0.4626,-0.4646,-0.466,-0.4669,-0.4659,-0.4673,-0.4662,-0.465,-0.4654,-0.4652,-0.4651,-0.4648,-0.4646,-0.4662,-0.4662,-0.4662,0,-0.4465,-0.448,-0.4502,-0.451,-0.452,-0.4543,-0.4548,-0.456,-0.4584,-0.459,-0.4597,-0.4624,-0.4639,-0.465,-0.4647,-0.4654,-0.4656,-0.466,-0.465,-0.4649,-0.4648,-0.4646,-0.4645,-0.4661,-0.4661,-0.4661,-0.4661,0,-0.4458,-0.4468,-0.4469,-0.4492,-0.4502,-0.4509,-0.4532,-0.4539,-0.4553,-0.4568,-0.4579,-0.4598,-0.4615,-0.4619,-0.4632,-0.4632,-0.4636,-0.4646,-0.4658,-0.4645,-0.4643,-0.4642,-0.4659,-0.4659,-0.466,-0.466,0,0,-0.4422,-0.4458,-0.4458,-0.447,-0.4495,-0.4504,-0.4512,-0.4529,-0.4536,-0.4551,-0.4559,-0.4576,-0.4587,-0.4597,-0.4612,-0.4616,-0.4608,-0.4626,-0.4627,-0.4623,-0.4611,-0.4603,-0.4601,-0.4617,-0.4617,-0.4617,-0.4609,0,-0.441,-0.4426,-0.4446,-0.4455,-0.4466,-0.4488,-0.4496,-0.4512,-0.4527,-0.4538,-0.4555,-0.4567,-0.4579,-0.4586,-0.459,-0.4608,-0.4606,-0.4608,-0.4625,-0.4625,-0.462,-0.46,-0.4592,-0.4584,-0.4609,-0.4609,-0.4608,0,-0.4397,-0.4413,-0.4423,-0.4449,-0.4454,-0.446,-0.4478,-0.4489,-0.4508,-0.4519,-0.4531,-0.4548,-0.4558,-0.4568,-0.4583,-0.4585,-0.4593,-0.4602,-0.4603,-0.4605,-0.4616,-0.4603,-0.4582,-0.4581,-0.4607,-0.4607,-0.4608,0,-0.4372,-0.4395,-0.4405,-0.4413,-0.4443,-0.4447,-0.446,-0.448,-0.449,-0.4506,-0.4512,-0.4529,-0.4538,-0.4551,-0.4572,-0.4577,-0.4585,-0.4597,-0.4594,-0.4594,-0.4595,-0.4595,-0.4575,-0.4599,-0.4599,-0.4599,-0.4599,0,-0.4356,-0.4361,-0.4394,-0.4399,-0.4407,-0.443,-0.4437,-0.4452,-0.447,-0.4479,-0.45,-0.4508,-0.4535,-0.4546,-0.4563,-0.4573,-0.4577,-0.4586,-0.459,-0.4585,-0.4584,-0.459,-0.4592,-0.4599,-0.4599,-0.4599,-0.4599,0,-0.4329,-0.435,-0.4362,-0.439,-0.4397,-0.4401,-0.4425,-0.4432,-0.4449,-0.4461,-0.4465,-0.449,-0.4506,-0.4527,-0.4549,-0.456,-0.4568,-0.4575,-0.4562,-0.4564,-0.4561,-0.4561,-0.4546,-0.4545,-0.4569,-0.4568,-0.4568,0,-0.4317,-0.4322,-0.4351,-0.4359,-0.4371,-0.4384,-0.4394,-0.4418,-0.4427,-0.4451,-0.4455,-0.4472,-0.4487,-0.451,-0.453,-0.4547,-0.4555,-0.4548,-0.4558,-0.4552,-0.4556,-0.4555,-0.4557,-0.4546,-0.4546,-0.4545,-0.4545,0,-0.4295,-0.4306,-0.432,-0.4338,-0.435,-0.4365,-0.4381,-0.4387,-0.4414,-0.4424,-0.444,-0.4452,-0.4474,-0.4491,-0.4511,-0.4524,-0.454,-0.4542,-0.4543,-0.4537,-0.453,-0.4534,-0.4556,-0.4542,-0.4543,-0.4543,-0.4543,-0.4543,-0.4276,-0.4282,-0.4304,-0.4319,-0.4334,-0.4349,-0.4357,-0.4375,-0.4389,-0.4409,-0.4423,-0.4438,-0.4459,-0.4487,-0.45,-0.4513,-0.4519,-0.4519,-0.452,-0.452,-0.4518,-0.4527,-0.4516,-0.4516,-0.4517,-0.4517,-0.4517,0,-0.4257,-0.4272,-0.4285,-0.4308,-0.432,-0.4334,-0.4353,-0.4362,-0.4376,-0.4394,-0.4408,-0.4427,-0.4444,-0.4466,-0.4484,-0.449,-0.4498,-0.4494,-0.4495,-0.4498,-0.4511,-0.4509,-0.4488,-0.4488,-0.4488,-0.4488,-0.4488,-0.4488,-0.4248,-0.4259,-0.4272,-0.4291,-0.4307,-0.4322,-0.4332,-0.4346,-0.4361,-0.4381,-0.4395,-0.441,-0.443,-0.4451,-0.4467,-0.4473,-0.4479,-0.4473,-0.4482,-0.4494,-0.4496,-0.4499,-0.4497,-0.4474,-0.4474,-0.4468,-0.4468,-0.4467]},{"header":{"parameterUnit":"m.s-1","parameterCategory":1,"la1":30.2991,"la2":30.254,"lo1":-89.0895,"lo2":-89.0444,"dy":0.0017,"dx":0.0017,"nx":28,"ny":28,"refTime":"2025-03-18T21:00:00:Z","depth":0,"parameterNumber":3,"parameterNumberName":"V-component_of_WINDS"},"data":[0,0,0,0,0,0,0,0,0,0,0,0,0,0,0,0,0,0,0,0,0,0,0,0,0,0,0,0,0,0,0,0,0,0,0,0,0,0,0,0,0,0,0,0,0,0,0,0,0,0,0,0,0,0,0,0,0,0,8.4069,8.407,0,8.4149,8.4149,8.415,8.4077,8.4074,8.4071,8.4068,8.4143,8.4147,8.4152,0,0,0,0,0,0,0,0,0,0,0,0,0,8.3845,8.3849,8.4069,8.407,8.4071,8.4148,8.4149,8.415,8.4077,8.4074,8.407,8.4067,8.4141,8.4147,8.4152,0,0,0,0,0,0,0,0,0,0,0,0,0,8.3935,8.3851,8.4069,8.4044,8.4042,8.4148,8.4149,8.4151,8.4078,8.4074,8.4069,8.4065,8.4139,8.4146,8.4153,8.4285,0,0,8.4175,8.4178,0,0,0,0,0,0,0,0,8.393,8.3943,8.4047,8.4046,8.4044,8.4098,8.4098,8.4196,8.4079,8.4064,8.4068,8.4063,8.4131,8.4139,8.4163,8.4289,8.4292,8.4175,8.418,8.4183,8.4185,0,0,0,0,0,0,0,8.3924,8.3939,8.41,8.4048,8.4047,8.4026,8.4034,8.4116,8.4121,8.4065,8.406,8.4071,8.413,8.4156,8.4164,8.4293,8.4175,8.4182,8.4186,8.4189,8.4527,8.4532,0,0,0,0,0,0,8.3921,8.3935,8.4098,8.4102,8.3975,8.4034,8.4042,8.4085,8.412,8.4121,8.4075,8.4067,8.4146,8.4156,8.4166,8.4321,8.4183,8.4189,8.4193,8.4523,8.4528,8.4534,0,0,0,0,0,0,8.3917,8.3937,8.4094,8.4017,8.4036,8.4042,8.4091,8.4089,8.4116,8.4127,8.4127,8.4102,8.4143,8.4156,8.4256,8.4322,8.4193,8.4199,8.4517,8.4524,8.4531,8.4633,0,0,0,0,0,0,8.3911,8.3935,8.3988,8.4019,8.404,8.4185,8.4095,8.4094,8.4129,8.412,8.4153,8.4154,8.4141,8.4246,8.4263,8.433,8.4205,8.4511,8.452,8.4529,8.4623,8.4642,8.4659,0,0,0,0,0,8.3903,8.4012,8.3991,8.4011,8.4106,8.4189,8.4201,8.4186,8.4135,8.4186,8.4193,8.4153,8.4313,8.4257,8.4275,8.4345,8.4507,8.4518,8.4528,8.4615,8.4638,8.4658,0,0,0,0,0,0,8.3986,8.4016,8.3993,8.4116,8.4151,8.4177,8.4241,8.4212,8.426,8.425,8.4227,8.4235,8.4339,8.4352,8.4289,8.4473,8.4401,8.4416,8.4461,8.4483,8.45,8.4494,8.421,0,0,0,0,0,8.402,8.4088,8.4108,8.4215,8.4234,8.4235,8.427,8.4256,8.429,8.4304,8.4318,8.4351,8.4408,8.4447,8.45,8.4625,8.4629,8.4682,8.47,8.4714,8.4727,8.4791,8.4814,8.4569,8.4569,8.4568,0,0,8.4088,8.4113,8.4156,8.4232,8.4258,8.4325,8.4248,8.4323,8.4372,8.4315,8.4409,8.4421,8.4456,8.4568,8.4618,8.4582,8.4796,8.4728,8.474,8.4744,8.4804,8.4827,8.4848,8.4576,8.4575,8.4573,0,0,8.4247,8.4274,8.4364,8.4392,8.4432,8.4431,8.4453,8.4484,8.449,8.4585,8.4543,8.4599,8.47,8.4725,8.4752,8.4919,8.4882,8.4937,8.5028,8.5091,8.511,8.5127,8.5184,8.5205,8.495,8.495,8.495,0,8.4326,8.4429,8.4414,8.4492,8.4525,8.4479,8.4568,8.4595,8.4649,8.4672,8.4632,8.4755,8.4776,8.4892,8.4932,8.4956,8.4978,8.4932,8.5109,8.5126,8.5141,8.5195,8.5217,8.4956,8.4955,8.4955,8.4954,0,8.4523,8.4594,8.4662,8.4718,8.4759,8.4843,8.4837,8.488,8.4862,8.4865,8.496,8.4983,8.504,8.5066,8.5049,8.5179,8.5156,8.5113,8.5039,8.5171,8.5221,8.5242,8.4965,8.4963,8.4961,8.4959,0,0,8.4736,8.4782,8.4807,8.4831,8.4871,8.4925,8.5005,8.5062,8.5097,8.5137,8.5201,8.5286,8.5247,8.5276,8.5261,8.5317,8.5444,8.5266,8.5267,8.5296,8.5586,8.5616,8.564,8.5421,8.5425,8.5428,8.5582,0,8.4894,8.5036,8.5024,8.5156,8.522,8.5177,8.5245,8.5276,8.5281,8.5333,8.5337,8.5397,8.5342,8.5359,8.5412,8.5417,8.5501,8.5406,8.5477,8.548,8.5468,8.5667,8.57,8.5844,8.5602,8.5605,8.5607,0,8.5098,8.5145,8.5285,8.5314,8.534,8.5403,8.5453,8.5505,8.5537,8.5537,8.557,8.5545,8.5622,8.5549,8.5653,8.5588,8.5616,8.5623,8.5628,8.5632,8.555,8.5674,8.589,8.5911,8.5639,8.5636,8.5634,0,8.5236,8.5335,8.5431,8.5453,8.5489,8.5534,8.5551,8.5579,8.5613,8.5656,8.5678,8.5729,8.5756,8.5795,8.5783,8.5731,8.5888,8.5815,8.5887,8.5887,8.5921,8.5918,8.6142,8.5943,8.5943,8.5942,8.5942,0,8.5413,8.5499,8.5493,8.5552,8.5646,8.563,8.5723,8.5734,8.5759,8.5817,8.5782,8.5836,8.5818,8.5871,8.5862,8.5948,8.5961,8.596,8.5956,8.5962,8.5962,8.5978,8.5967,8.5948,8.5947,8.5946,8.5945,0,8.5582,8.5582,8.5683,8.571,8.5718,8.5787,8.5808,8.5861,8.5863,8.5936,8.5952,8.5954,8.6014,8.6006,8.6073,8.6066,8.6173,8.6158,8.6162,8.6158,8.623,8.6222,8.647,8.65,8.6285,8.6287,8.6288,0,8.5694,8.576,8.5794,8.5831,8.5851,8.5911,8.5946,8.5932,8.597,8.6011,8.6059,8.6116,8.6161,8.6258,8.6263,8.6313,8.6297,8.6381,8.6304,8.6308,8.6295,8.6291,8.6296,8.6395,8.6398,8.64,8.6401,0,8.5892,8.5888,8.5941,8.5994,8.6038,8.6078,8.6115,8.6146,8.6135,8.6179,8.624,8.6275,8.6343,8.6399,8.6446,8.646,8.6428,8.6426,8.6444,8.645,8.6449,8.6448,8.6201,8.6419,8.6418,8.6416,8.6415,8.6414,8.6034,8.6089,8.6121,8.6181,8.6207,8.6242,8.6293,8.6302,8.6354,8.6409,8.6397,8.6466,8.6494,8.6554,8.6573,8.6624,8.6593,8.6622,8.6628,8.6635,8.6642,8.6443,8.6633,8.6632,8.6632,8.6632,8.6631,0,8.6227,8.6246,8.6301,8.6354,8.64,8.6369,8.6407,8.6447,8.6508,8.6538,8.6583,8.6653,8.6706,8.6716,8.6767,8.6806,8.6792,8.6819,8.6815,8.6818,8.6668,8.6646,8.6829,8.6829,8.6829,8.6829,8.6829,8.6829,8.6333,8.6424,8.6424,8.6527,8.6544,8.6613,8.6637,8.6667,8.6691,8.6771,8.6816,8.6823,8.6844,8.6895,8.6942,8.6943,8.6962,8.6995,8.699,8.6849,8.6829,8.681,8.6789,8.6999,8.7,8.7135,8.7136,8.7137]}]]